| time (UTC) | temp F | wind direction | speed MPH | gust MPH | rain 1hr in | rain 24hr in | rain mn in | humidity % | barometer mb |
| 20260507040459 | 73 | 233 | 14.0 | 20.0 | 0.00 | 0.00 | 0.00 | 88 | 1013.8 |
| 20260507040002 | 73 | 229 | 14.0 | 20.0 | 0.00 | 0.00 | 0.00 | 88 | 1013.6 |
| 20260507035458 | 73 | 232 | 17.0 | 20.0 | 0.00 | 0.00 | 0.00 | 88 | 1013.3 |
| 20260507034958 | 73 | 234 | 14.0 | 20.0 | 0.00 | 0.00 | 0.00 | 88 | 1013.5 |
| 20260507034502 | 73 | 234 | 16.0 | 22.0 | 0.00 | 0.00 | 0.00 | 88 | 1013.3 |
| 20260507034002 | 73 | 216 | 16.0 | 22.0 | 0.00 | 0.00 | 0.00 | 88 | 1013.1 |
| 20260507033504 | 73 | 210 | 17.0 | 22.0 | 0.00 | 0.00 | 0.00 | 88 | 1013.3 |
| 20260507033004 | 73 | 215 | 17.0 | 21.0 | 0.00 | 0.00 | 0.00 | 89 | 1013.3 |
| 20260507032503 | 73 | 221 | 16.0 | 21.0 | 0.00 | 0.00 | 0.00 | 89 | 1013.2 |
| 20260507031958 | 73 | 214 | 15.0 | 17.0 | 0.00 | 0.00 | 0.00 | 90 | 1013.1 |
| 20260507031458 | 73 | 210 | 13.0 | 17.0 | 0.00 | 0.00 | 0.00 | 90 | 1013.2 |
| 20260507030959 | 73 | 215 | 13.0 | 18.0 | 0.00 | 0.00 | 0.00 | 90 | 1013.2 |
| 20260507030501 | 73 | 214 | 14.0 | 21.0 | 0.00 | 0.00 | 0.00 | 90 | 1013.2 |
| 20260507030002 | 73 | 224 | 14.0 | 21.0 | 0.00 | 0.00 | 0.00 | 90 | 1013.5 |
| 20260507025458 | 73 | 208 | 15.0 | 19.0 | 0.00 | 0.00 | 0.00 | 90 | 1013.5 |
| 20260507024959 | 73 | 224 | 12.0 | 17.0 | 0.00 | 0.00 | 0.00 | 90 | 1013.5 |
| 20260507024502 | 73 | 236 | 13.0 | 18.0 | 0.00 | 0.00 | 0.00 | 90 | 1013.5 |
| 20260507024001 | 73 | 208 | 14.0 | 18.0 | 0.00 | 0.00 | 0.00 | 90 | 1013.0 |
| 20260507023501 | 73 | 202 | 12.0 | 21.0 | 0.00 | 0.00 | 0.00 | 90 | 1013.0 |
| 20260507023004 | 73 | 177 | 13.0 | 21.0 | 0.00 | 0.00 | 0.00 | 90 | 1013.0 |
| 20260507022502 | 73 | 212 | 13.0 | 17.0 | 0.00 | 0.00 | 0.00 | 90 | 1013.3 |
| 20260507022005 | 72 | 217 | 13.0 | 17.0 | 0.00 | 0.00 | 0.00 | 90 | 1013.4 |
| 20260507021502 | 72 | 214 | 13.0 | 17.0 | 0.00 | 0.00 | 0.00 | 90 | 1013.4 |
| 20260507021002 | 72 | 221 | 12.0 | 16.0 | 0.00 | 0.00 | 0.00 | 90 | 1013.7 |
| 20260507020500 | 72 | 235 | 10.0 | 16.0 | 0.00 | 0.00 | 0.00 | 90 | 1013.8 |
| 20260507015959 | 72 | 218 | 11.0 | 14.0 | 0.00 | 0.00 | 0.00 | 90 | 1013.6 |
| 20260507015459 | 72 | 229 | 9.0 | 14.0 | 0.00 | 0.00 | 0.00 | 91 | 1013.7 |
| 20260507014958 | 72 | 235 | 10.0 | 16.0 | 0.00 | 0.00 | 0.00 | 91 | 1013.7 |
| 20260507014504 | 72 | 226 | 10.0 | 17.0 | 0.00 | 0.00 | 0.00 | 91 | 1013.9 |
| 20260507013959 | 72 | 206 | 12.0 | 17.0 | 0.00 | 0.00 | 0.00 | 91 | 1013.7 |
| 20260507013458 | 72 | 221 | 12.0 | 17.0 | 0.00 | 0.00 | 0.00 | 91 | 1013.6 |
| 20260507013003 | 72 | 212 | 12.0 | 16.0 | 0.00 | 0.00 | 0.00 | 91 | 1013.7 |
| 20260507012502 | 72 | 225 | 11.0 | 15.0 | 0.00 | 0.00 | 0.00 | 91 | 1013.8 |
| 20260507012002 | 72 | 230 | 11.0 | 15.0 | 0.00 | 0.00 | 0.00 | 91 | 1013.9 |
| 20260507011508 | 72 | 223 | 12.0 | 15.0 | 0.00 | 0.00 | 0.00 | 91 | 1014.0 |
| 20260507011002 | 72 | 214 | 10.0 | 16.0 | 0.00 | 0.00 | 0.00 | 91 | 1014.1 |
| 20260507010503 | 72 | 216 | 12.0 | 17.0 | 0.00 | 0.00 | 0.00 | 91 | 1014.1 |
| 20260507010006 | 72 | 212 | 12.0 | 17.0 | 0.00 | 0.00 | 0.00 | 91 | 1014.0 |
| 20260507005504 | 72 | 223 | 11.0 | 15.0 | 0.00 | 0.00 | 0.00 | 91 | 1014.0 |
| 20260507005002 | 72 | 213 | 11.0 | 14.0 | 0.00 | 0.00 | 0.00 | 91 | 1013.9 |
| 20260507004459 | 72 | 224 | 11.0 | 15.0 | 0.00 | 0.00 | 0.00 | 91 | 1014.0 |
| 20260507003958 | 72 | 233 | 12.0 | 15.0 | 0.00 | 0.00 | 0.00 | 90 | 1014.0 |
| 20260507003459 | 72 | 229 | 11.0 | 15.0 | 0.00 | 0.00 | 0.00 | 90 | 1013.9 |
| 20260507003002 | 72 | 213 | 12.0 | 15.0 | 0.00 | 0.00 | 0.00 | 90 | 1013.9 |
| 20260507002458 | 72 | 220 | 11.0 | 15.0 | 0.00 | 0.00 | 0.00 | 90 | 1013.8 |
| 20260507002002 | 72 | 232 | 12.0 | 16.0 | 0.00 | 0.00 | 0.00 | 90 | 1013.8 |
| 20260507001503 | 72 | 217 | 12.0 | 16.0 | 0.00 | 0.00 | 0.00 | 90 | 1013.8 |
| 20260507001002 | 72 | 217 | 11.0 | 17.0 | 0.00 | 0.00 | 0.00 | 90 | 1013.9 |
| 20260507000502 | 72 | 218 | 11.0 | 17.0 | 0.00 | 0.00 | 0.00 | 90 | 1014.0 |
| 20260507000005 | 72 | 221 | 13.0 | 15.0 | 0.00 | 0.00 | 0.00 | 90 | 1014.0 |
| 20260506235503 | 72 | 221 | 12.0 | 15.0 | 0.00 | 0.00 | 0.00 | 90 | 1014.0 |
| 20260506235002 | 72 | 225 | 12.0 | 15.0 | 0.00 | 0.00 | 0.00 | 89 | 1014.0 |
| 20260506234503 | 72 | 231 | 13.0 | 16.0 | 0.00 | 0.00 | 0.00 | 89 | 1014.1 |
| 20260506234002 | 72 | 224 | 12.0 | 16.0 | 0.00 | 0.00 | 0.00 | 89 | 1014.0 |
| 20260506233503 | 72 | 231 | 11.0 | 16.0 | 0.00 | 0.00 | 0.00 | 89 | 1013.9 |
| 20260506233006 | 72 | 229 | 12.0 | 16.0 | 0.00 | 0.00 | 0.00 | 89 | 1013.9 |
| 20260506232458 | 72 | 236 | 11.0 | 16.0 | 0.00 | 0.00 | 0.00 | 88 | 1014.0 |
| 20260506231958 | 73 | 224 | 12.0 | 14.0 | 0.00 | 0.00 | 0.00 | 88 | 1014.2 |
| 20260506231522 | 73 | 230 | 11.0 | 13.0 | 0.00 | 0.00 | 0.00 | 88 | 1014.2 |
| 20260506231003 | 73 | 248 | 8.0 | 13.0 | 0.00 | 0.00 | 0.00 | 88 | 1014.4 |
| 20260506230501 | 73 | 240 | 10.0 | 13.0 | 0.00 | 0.00 | 0.00 | 88 | 1014.4 |
| 20260506230003 | 73 | 224 | 8.0 | 15.0 | 0.00 | 0.00 | 0.00 | 88 | 1014.2 |
| 20260506225503 | 73 | 242 | 10.0 | 15.0 | 0.00 | 0.00 | 0.00 | 87 | 1014.2 |
| 20260506225003 | 73 | 226 | 10.0 | 15.0 | 0.00 | 0.00 | 0.00 | 87 | 1014.2 |
| 20260506224504 | 73 | 240 | 10.0 | 19.0 | 0.00 | 0.00 | 0.00 | 87 | 1014.1 |
| 20260506224002 | 73 | 225 | 14.0 | 20.0 | 0.00 | 0.00 | 0.00 | 87 | 1014.0 |
| 20260506223502 | 73 | 228 | 16.0 | 20.0 | 0.00 | 0.00 | 0.00 | 86 | 1014.0 |
| 20260506223005 | 73 | 215 | 15.0 | 19.0 | 0.00 | 0.00 | 0.00 | 86 | 1014.0 |
| 20260506222502 | 73 | 226 | 15.0 | 19.0 | 0.00 | 0.00 | 0.00 | 85 | 1014.0 |
| 20260506222004 | 73 | 209 | 13.0 | 21.0 | 0.00 | 0.00 | 0.00 | 86 | 1014.0 |
| 20260506221508 | 73 | 209 | 16.0 | 21.0 | 0.00 | 0.00 | 0.00 | 85 | 1013.9 |
| 20260506220959 | 74 | 212 | 15.0 | 21.0 | 0.00 | 0.00 | 0.00 | 86 | 1013.8 |
| 20260506220458 | 73 | 226 | 17.0 | 21.0 | 0.00 | 0.00 | 0.00 | 85 | 1013.8 |
| 20260506220003 | 73 | 214 | 16.0 | 22.0 | 0.00 | 0.00 | 0.00 | 85 | 1013.9 |
| 20260506215501 | 73 | 225 | 16.0 | 22.0 | 0.00 | 0.00 | 0.00 | 85 | 1014.0 |
| 20260506215006 | 73 | 227 | 14.0 | 21.0 | 0.00 | 0.00 | 0.00 | 85 | 1014.0 |
| 20260506214503 | 73 | 230 | 17.0 | 21.0 | 0.00 | 0.00 | 0.00 | 85 | 1014.2 |
| 20260506214005 | 74 | 224 | 16.0 | 20.0 | 0.00 | 0.00 | 0.00 | 85 | 1014.2 |
| 20260506213502 | 74 | 229 | 14.0 | 19.0 | 0.00 | 0.00 | 0.00 | 84 | 1014.2 |
| 20260506213004 | 74 | 216 | 13.0 | 21.0 | 0.00 | 0.00 | 0.00 | 85 | 1014.1 |
| 20260506212503 | 74 | 233 | 16.0 | 22.0 | 0.00 | 0.00 | 0.00 | 84 | 1014.3 |
| 20260506212006 | 74 | 211 | 16.0 | 22.0 | 0.00 | 0.00 | 0.00 | 84 | 1014.3 |
| 20260506211509 | 73 | 210 | 16.0 | 21.0 | 0.00 | 0.00 | 0.00 | 84 | 1014.3 |
| 20260506211005 | 73 | 210 | 16.0 | 21.0 | 0.00 | 0.00 | 0.00 | 84 | 1014.2 |
| 20260506210504 | 73 | 207 | 13.0 | 21.0 | 0.00 | 0.00 | 0.00 | 85 | 1014.3 |
| 20260506210009 | 73 | 223 | 17.0 | 21.0 | 0.00 | 0.00 | 0.00 | 83 | 1014.2 |
| 20260506205506 | 73 | 229 | 16.0 | 23.0 | 0.00 | 0.00 | 0.00 | 82 | 1014.2 |
| 20260506205002 | 74 | 224 | 15.0 | 23.0 | 0.00 | 0.00 | 0.00 | 82 | 1014.2 |
| 20260506204506 | 74 | 221 | 16.0 | 25.0 | 0.00 | 0.00 | 0.00 | 83 | 1014.3 |
| 20260506204002 | 74 | 234 | 19.0 | 25.0 | 0.00 | 0.00 | 0.00 | 82 | 1014.2 |
| 20260506203502 | 74 | 240 | 16.0 | 23.0 | 0.00 | 0.00 | 0.00 | 82 | 1014.4 |
| 20260506203003 | 74 | 219 | 17.0 | 23.0 | 0.00 | 0.00 | 0.00 | 82 | 1014.5 |
| 20260506202503 | 74 | 228 | 17.0 | 22.0 | 0.00 | 0.00 | 0.00 | 83 | 1014.5 |
| 20260506202004 | 74 | 223 | 15.0 | 22.0 | 0.00 | 0.00 | 0.00 | 81 | 1014.6 |
| 20260506201503 | 74 | 203 | 17.0 | 22.0 | 0.00 | 0.00 | 0.00 | 81 | 1014.6 |
| 20260506201003 | 74 | 213 | 16.0 | 23.0 | 0.00 | 0.00 | 0.00 | 82 | 1014.5 |
| 20260506200504 | 73 | 207 | 17.0 | 23.0 | 0.00 | 0.00 | 0.00 | 82 | 1014.6 |
| 20260506200007 | 73 | 221 | 19.0 | 25.0 | 0.00 | 0.00 | 0.00 | 81 | 1014.7 |
| 20260506195503 | 73 | 214 | 18.0 | 27.0 | 0.00 | 0.00 | 0.00 | 82 | 1014.7 |
| 20260506195004 | 73 | 222 | 19.0 | 27.0 | 0.00 | 0.00 | 0.00 | 81 | 1014.7 |
| 20260506194515 | 74 | 209 | 21.0 | 28.0 | 0.00 | 0.00 | 0.00 | 81 | 1014.7 |
| 20260506194004 | 74 | 212 | 19.0 | 28.0 | 0.00 | 0.00 | 0.00 | 79 | 1014.7 |
| 20260506193505 | 74 | 212 | 19.0 | 26.0 | 0.00 | 0.00 | 0.00 | 79 | 1014.7 |
| 20260506193004 | 74 | 227 | 18.0 | 23.0 | 0.00 | 0.00 | 0.00 | 80 | 1015.0 |
| 20260506192502 | 74 | 220 | 18.0 | 23.0 | 0.00 | 0.00 | 0.00 | 80 | 1015.1 |
| 20260506192004 | 74 | 219 | 16.0 | 26.0 | 0.00 | 0.00 | 0.00 | 82 | 1015.2 |
| 20260506191503 | 74 | 236 | 19.0 | 26.0 | 0.00 | 0.00 | 0.00 | 80 | 1015.1 |
| 20260506191003 | 74 | 214 | 19.0 | 24.0 | 0.00 | 0.00 | 0.00 | 80 | 1015.3 |
| 20260506190502 | 74 | 223 | 18.0 | 22.0 | 0.00 | 0.00 | 0.00 | 79 | 1015.4 |
| 20260506190006 | 74 | 230 | 17.0 | 23.0 | 0.00 | 0.00 | 0.00 | 79 | 1015.6 |
| 20260506185504 | 74 | 236 | 16.0 | 23.0 | 0.00 | 0.00 | 0.00 | 80 | 1015.6 |
| 20260506185003 | 74 | 226 | 20.0 | 23.0 | 0.00 | 0.00 | 0.00 | 79 | 1015.7 |
| 20260506184508 | 74 | 223 | 17.0 | 25.0 | 0.00 | 0.00 | 0.00 | 81 | 1015.8 |
| 20260506184006 | 74 | 227 | 19.0 | 25.0 | 0.00 | 0.00 | 0.00 | 79 | 1015.9 |
| 20260506183504 | 74 | 244 | 16.0 | 22.0 | 0.00 | 0.00 | 0.00 | 81 | 1015.9 |
| 20260506183026 | 74 | 227 | 17.0 | 22.0 | 0.00 | 0.00 | 0.00 | 80 | 1015.9 |
| 20260506182504 | 74 | 240 | 16.0 | 21.0 | 0.00 | 0.00 | 0.00 | 81 | 1015.9 |
| 20260506182006 | 74 | 234 | 17.0 | 23.0 | 0.00 | 0.00 | 0.00 | 81 | 1015.8 |
| 20260506181504 | 74 | 219 | 17.0 | 23.0 | 0.00 | 0.00 | 0.00 | 81 | 1015.9 |
| 20260506181002 | 74 | 231 | 17.0 | 21.0 | 0.00 | 0.00 | 0.00 | 81 | 1016.0 |
| 20260506180504 | 74 | 219 | 14.0 | 21.0 | 0.00 | 0.00 | 0.00 | 81 | 1016.0 |
| 20260506180010 | 74 | 236 | 17.0 | 21.0 | 0.00 | 0.00 | 0.00 | 81 | 1016.1 |
| 20260506175504 | 73 | 231 | 16.0 | 20.0 | 0.00 | 0.00 | 0.00 | 81 | 1016.1 |
| 20260506175004 | 73 | 238 | 16.0 | 22.0 | 0.00 | 0.00 | 0.00 | 81 | 1016.2 |
| 20260506174510 | 73 | 243 | 15.0 | 22.0 | 0.00 | 0.00 | 0.00 | 82 | 1016.4 |
| 20260506174004 | 73 | 231 | 17.0 | 22.0 | 0.00 | 0.00 | 0.00 | 81 | 1016.4 |
| 20260506173504 | 74 | 235 | 15.0 | 25.0 | 0.00 | 0.00 | 0.00 | 80 | 1016.4 |
| 20260506173008 | 73 | 246 | 17.0 | 25.0 | 0.00 | 0.00 | 0.00 | 79 | 1016.2 |
| 20260506172504 | 74 | 218 | 18.0 | 23.0 | 0.00 | 0.00 | 0.00 | 80 | 1016.2 |
| 20260506172005 | 74 | 221 | 19.0 | 26.0 | 0.00 | 0.00 | 0.00 | 79 | 1016.4 |
| 20260506171525 | 74 | 257 | 17.0 | 26.0 | 0.00 | 0.00 | 0.00 | 79 | 1016.6 |
| 20260506171008 | 74 | 234 | 18.0 | 25.0 | 0.00 | 0.00 | 0.00 | 79 | 1016.4 |
| 20260506170510 | 74 | 241 | 17.0 | 25.0 | 0.00 | 0.00 | 0.00 | 80 | 1016.6 |
| 20260506170023 | 74 | 246 | 19.0 | 25.0 | 0.00 | 0.00 | 0.00 | 77 | 1016.6 |
| 20260506165505 | 74 | 260 | 17.0 | 23.0 | 0.00 | 0.00 | 0.00 | 78 | 1016.6 |
| 20260506165003 | 74 | 232 | 18.0 | 23.0 | 0.00 | 0.00 | 0.00 | 79 | 1016.6 |
| 20260506164506 | 74 | 250 | 18.0 | 24.0 | 0.00 | 0.00 | 0.00 | 78 | 1016.5 |
| 20260506164004 | 74 | 242 | 15.0 | 24.0 | 0.00 | 0.00 | 0.00 | 80 | 1016.6 |
| 20260506163503 | 74 | 222 | 18.0 | 23.0 | 0.00 | 0.00 | 0.00 | 77 | 1016.6 |
| 20260506163008 | 74 | 232 | 16.0 | 21.0 | 0.00 | 0.00 | 0.00 | 79 | 1016.7 |
| 20260506162503 | 74 | 224 | 15.0 | 21.0 | 0.00 | 0.00 | 0.00 | 80 | 1016.7 |
| 20260506162005 | 73 | 235 | 14.0 | 19.0 | 0.00 | 0.00 | 0.00 | 81 | 1016.8 |
| 20260506161510 | 73 | 218 | 15.0 | 21.0 | 0.00 | 0.00 | 0.00 | 81 | 1017.0 |
| 20260506161006 | 73 | 219 | 13.0 | 21.0 | 0.00 | 0.00 | 0.00 | 82 | 1017.0 |
| 20260506160504 | 73 | 221 | 12.0 | 19.0 | 0.00 | 0.00 | 0.00 | 82 | 1017.0 |
| 20260506160017 | 73 | 219 | 13.0 | 19.0 | 0.00 | 0.00 | 0.00 | 81 | 1017.0 |
| 20260506155504 | 73 | 232 | 14.0 | 19.0 | 0.00 | 0.00 | 0.00 | 81 | 1017.1 |
| 20260506155009 | 73 | 219 | 13.0 | 19.0 | 0.00 | 0.00 | 0.00 | 81 | 1017.1 |
| 20260506154529 | 73 | 221 | 14.0 | 19.0 | 0.00 | 0.00 | 0.00 | 80 | 1017.1 |
| 20260506154008 | 73 | 229 | 14.0 | 19.0 | 0.00 | 0.00 | 0.00 | 80 | 1017.1 |
| 20260506153503 | 73 | 229 | 13.0 | 19.0 | 0.00 | 0.00 | 0.00 | 78 | 1017.1 |
| 20260506153007 | 73 | 231 | 12.0 | 17.0 | 0.00 | 0.00 | 0.00 | 81 | 1017.1 |
| 20260506152504 | 73 | 255 | 13.0 | 18.0 | 0.00 | 0.00 | 0.00 | 80 | 1017.2 |
| 20260506152003 | 73 | 228 | 12.0 | 18.0 | 0.00 | 0.00 | 0.00 | 80 | 1017.2 |
| 20260506151511 | 73 | 221 | 13.0 | 18.0 | 0.00 | 0.00 | 0.00 | 80 | 1017.1 |
| 20260506151004 | 73 | 238 | 12.0 | 18.0 | 0.00 | 0.00 | 0.00 | 80 | 1017.2 |
| 20260506150505 | 73 | 224 | 14.0 | 18.0 | 0.00 | 0.00 | 0.00 | 81 | 1017.1 |
| 20260506150013 | 73 | 225 | 14.0 | 19.0 | 0.00 | 0.00 | 0.00 | 80 | 1017.1 |
| 20260506145506 | 73 | 226 | 14.0 | 19.0 | 0.00 | 0.00 | 0.00 | 79 | 1016.9 |
| 20260506145006 | 73 | 243 | 14.0 | 17.0 | 0.00 | 0.00 | 0.00 | 80 | 1016.8 |
| 20260506144519 | 73 | 222 | 13.0 | 18.0 | 0.00 | 0.00 | 0.00 | 81 | 1016.8 |
| 20260506144005 | 73 | 224 | 13.0 | 18.0 | 0.00 | 0.00 | 0.00 | 81 | 1016.7 |
| 20260506143505 | 73 | 238 | 13.0 | 19.0 | 0.00 | 0.00 | 0.00 | 81 | 1016.7 |
| 20260506143030 | 73 | 226 | 14.0 | 20.0 | 0.00 | 0.00 | 0.00 | 80 | 1016.7 |
| 20260506142508 | 73 | 228 | 13.0 | 20.0 | 0.00 | 0.00 | 0.00 | 79 | 1016.7 |
| 20260506142003 | 73 | 233 | 12.0 | 19.0 | 0.00 | 0.00 | 0.00 | 80 | 1016.6 |
| 20260506141509 | 73 | 240 | 13.0 | 19.0 | 0.00 | 0.00 | 0.00 | 80 | 1016.8 |
| 20260506141006 | 73 | 257 | 14.0 | 19.0 | 0.00 | 0.00 | 0.00 | 79 | 1016.7 |
| 20260506140504 | 72 | 217 | 13.0 | 21.0 | 0.00 | 0.00 | 0.00 | 79 | 1016.7 |
| 20260506140012 | 72 | 234 | 16.0 | 21.0 | 0.00 | 0.00 | 0.00 | 79 | 1016.5 |
| 20260506135509 | 72 | 222 | 14.0 | 20.0 | 0.00 | 0.00 | 0.00 | 80 | 1016.4 |
| 20260506135007 | 72 | 242 | 13.0 | 20.0 | 0.00 | 0.00 | 0.00 | 80 | 1016.5 |
| 20260506134514 | 72 | 221 | 12.0 | 19.0 | 0.00 | 0.00 | 0.00 | 81 | 1016.4 |
| 20260506134004 | 72 | 218 | 13.0 | 18.0 | 0.00 | 0.00 | 0.00 | 81 | 1016.5 |
| 20260506133505 | 72 | 217 | 13.0 | 18.0 | 0.00 | 0.00 | 0.00 | 81 | 1016.5 |
| 20260506133019 | 72 | 231 | 14.0 | 18.0 | 0.00 | 0.00 | 0.00 | 82 | 1016.4 |
| 20260506132510 | 72 | 214 | 13.0 | 18.0 | 0.00 | 0.00 | 0.00 | 81 | 1016.3 |
| 20260506132010 | 72 | 216 | 13.0 | 18.0 | 0.00 | 0.00 | 0.00 | 81 | 1016.4 |
| 20260506131524 | 72 | 216 | 13.0 | 16.0 | 0.00 | 0.00 | 0.00 | 82 | 1016.3 |
| 20260506131010 | 72 | 236 | 11.0 | 15.0 | 0.00 | 0.00 | 0.00 | 81 | 1016.3 |
| 20260506130510 | 72 | 223 | 11.0 | 16.0 | 0.00 | 0.00 | 0.00 | 82 | 1016.3 |
| 20260506130011 | 71 | 214 | 12.0 | 16.0 | 0.00 | 0.00 | 0.00 | 82 | 1016.4 |
| 20260506125501 | 71 | 215 | 11.0 | 16.0 | 0.00 | 0.00 | 0.00 | 82 | 1016.3 |
| 20260506125007 | 71 | 214 | 9.0 | 17.0 | 0.00 | 0.00 | 0.00 | 83 | 1016.2 |
| 20260506124512 | 71 | 219 | 12.0 | 17.0 | 0.00 | 0.00 | 0.00 | 82 | 1016.1 |
| 20260506124006 | 71 | 212 | 13.0 | 15.0 | 0.00 | 0.00 | 0.00 | 82 | 1016.2 |
| 20260506123507 | 71 | 219 | 12.0 | 14.0 | 0.00 | 0.00 | 0.00 | 82 | 1016.1 |
| 20260506123023 | 71 | 218 | 11.0 | 15.0 | 0.00 | 0.00 | 0.00 | 83 | 1016.2 |
| 20260506122505 | 71 | 222 | 11.0 | 15.0 | 0.00 | 0.00 | 0.00 | 83 | 1016.3 |
| 20260506122012 | 71 | 233 | 10.0 | 13.0 | 0.00 | 0.00 | 0.00 | 83 | 1016.2 |
| 20260506121524 | 71 | 223 | 10.0 | 13.0 | 0.00 | 0.00 | 0.00 | 83 | 1016.2 |
| 20260506121007 | 71 | 219 | 10.0 | 14.0 | 0.00 | 0.00 | 0.00 | 83 | 1016.2 |
| 20260506120507 | 71 | 228 | 11.0 | 14.0 | 0.00 | 0.00 | 0.00 | 83 | 1016.0 |
| 20260506120038 | 71 | 216 | 10.0 | 12.0 | 0.00 | 0.00 | 0.00 | 83 | 1016.0 |
| 20260506115514 | 70 | 219 | 10.0 | 13.0 | 0.00 | 0.00 | 0.00 | 83 | 1016.1 |
| 20260506115009 | 70 | 209 | 10.0 | 13.0 | 0.00 | 0.00 | 0.00 | 83 | 1016.0 |
| 20260506114526 | 70 | 211 | 9.0 | 12.0 | 0.00 | 0.00 | 0.00 | 84 | 1015.9 |
| 20260506114010 | 70 | 210 | 9.0 | 11.0 | 0.00 | 0.00 | 0.00 | 83 | 1016.0 |
| 20260506113507 | 70 | 221 | 8.0 | 11.0 | 0.00 | 0.00 | 0.00 | 84 | 1015.9 |
| 20260506113025 | 70 | 212 | 9.0 | 10.0 | 0.00 | 0.00 | 0.00 | 84 | 1015.8 |
| 20260506112506 | 70 | 206 | 7.0 | 9.0 | 0.00 | 0.00 | 0.00 | 84 | 1015.7 |
| 20260506112011 | 69 | 216 | 6.0 | 8.0 | 0.00 | 0.00 | 0.00 | 85 | 1015.8 |
| 20260506111519 | 69 | 214 | 5.0 | 8.0 | 0.00 | 0.00 | 0.00 | 85 | 1015.7 |
| 20260506111010 | 69 | 207 | 7.0 | 8.0 | 0.00 | 0.00 | 0.00 | 86 | 1015.6 |
| 20260506110507 | 69 | 222 | 5.0 | 7.0 | 0.00 | 0.00 | 0.00 | 86 | 1015.5 |
| 20260506110024 | 68 | 221 | 5.0 | 7.0 | 0.00 | 0.00 | 0.00 | 86 | 1015.4 |
| 20260506105509 | 68 | 221 | 5.0 | 7.0 | 0.00 | 0.00 | 0.00 | 86 | 1015.5 |
| 20260506105009 | 68 | 211 | 5.0 | 7.0 | 0.00 | 0.00 | 0.00 | 86 | 1015.4 |
| 20260506104523 | 68 | 216 | 5.0 | 7.0 | 0.00 | 0.00 | 0.00 | 86 | 1015.5 |
| 20260506104009 | 68 | 219 | 5.0 | 7.0 | 0.00 | 0.00 | 0.00 | 86 | 1015.5 |
| 20260506103511 | 68 | 236 | 5.0 | 7.0 | 0.00 | 0.00 | 0.00 | 86 | 1015.5 |
| 20260506103026 | 68 | 231 | 5.0 | 9.0 | 0.00 | 0.00 | 0.00 | 87 | 1015.4 |
| 20260506102506 | 68 | 228 | 6.0 | 9.0 | 0.00 | 0.00 | 0.00 | 86 | 1015.2 |
| 20260506102006 | 68 | 232 | 6.0 | 8.0 | 0.00 | 0.00 | 0.00 | 86 | 1015.2 |
| 20260506101516 | 67 | 232 | 6.0 | 7.0 | 0.00 | 0.00 | 0.00 | 86 | 1015.2 |
| 20260506101007 | 68 | 225 | 5.0 | 6.0 | 0.00 | 0.00 | 0.00 | 86 | 1015.2 |
| 20260506100505 | 68 | 220 | 4.0 | 6.0 | 0.00 | 0.00 | 0.00 | 86 | 1015.1 |
| 20260506100021 | 67 | 217 | 4.0 | 6.0 | 0.00 | 0.00 | 0.00 | 87 | 1015.2 |
| 20260506095507 | 67 | 239 | 3.0 | 5.0 | 0.00 | 0.00 | 0.00 | 86 | 1015.3 |
| 20260506095010 | 67 | 228 | 4.0 | 5.0 | 0.00 | 0.00 | 0.00 | 87 | 1015.2 |
| 20260506094524 | 67 | 229 | 4.0 | 5.0 | 0.00 | 0.00 | 0.00 | 87 | 1015.1 |
| 20260506094011 | 67 | 227 | 3.0 | 4.0 | 0.00 | 0.00 | 0.00 | 87 | 1015.2 |
| 20260506093511 | 67 | 233 | 3.0 | 5.0 | 0.00 | 0.00 | 0.00 | 87 | 1015.2 |
| 20260506093028 | 68 | 235 | 4.0 | 5.0 | 0.00 | 0.00 | 0.00 | 87 | 1015.2 |
| 20260506092507 | 67 | 229 | 4.0 | 5.0 | 0.00 | 0.00 | 0.00 | 87 | 1015.1 |
| 20260506092011 | 67 | 236 | 4.0 | 5.0 | 0.00 | 0.00 | 0.00 | 87 | 1015.3 |
| 20260506091531 | 68 | 247 | 4.0 | 5.0 | 0.00 | 0.00 | 0.00 | 86 | 1015.3 |
| 20260506091009 | 68 | 249 | 4.0 | 7.0 | 0.00 | 0.00 | 0.00 | 86 | 1015.2 |
| 20260506090505 | 68 | 244 | 5.0 | 7.0 | 0.00 | 0.00 | 0.00 | 86 | 1015.2 |
| 20260506090031 | 68 | 239 | 5.0 | 8.0 | 0.00 | 0.00 | 0.00 | 86 | 1015.2 |
| 20260506085508 | 68 | 234 | 6.0 | 8.0 | 0.00 | 0.00 | 0.00 | 86 | 1015.3 |
| 20260506085008 | 68 | 238 | 5.0 | 9.0 | 0.00 | 0.00 | 0.00 | 85 | 1015.4 |
| 20260506084523 | 68 | 243 | 6.0 | 9.0 | 0.00 | 0.00 | 0.00 | 85 | 1015.4 |
| 20260506084009 | 68 | 237 | 6.0 | 9.0 | 0.00 | 0.00 | 0.00 | 85 | 1015.2 |
| 20260506083509 | 68 | 230 | 7.0 | 9.0 | 0.00 | 0.00 | 0.00 | 85 | 1015.3 |
| 20260506083024 | 69 | 231 | 7.0 | 10.0 | 0.00 | 0.00 | 0.00 | 85 | 1015.3 |
| 20260506082509 | 68 | 231 | 7.0 | 10.0 | 0.00 | 0.00 | 0.00 | 85 | 1015.3 |
| 20260506082009 | 68 | 238 | 7.0 | 11.0 | 0.00 | 0.00 | 0.00 | 85 | 1015.2 |
| 20260506081526 | 69 | 228 | 8.0 | 11.0 | 0.00 | 0.00 | 0.00 | 85 | 1015.2 |
| 20260506081012 | 69 | 223 | 7.0 | 10.0 | 0.00 | 0.00 | 0.00 | 85 | 1015.2 |
| 20260506080510 | 69 | 233 | 7.0 | 9.0 | 0.00 | 0.00 | 0.00 | 85 | 1015.2 |
| 20260506073457 | 69 | 219 | 9.0 | 13.0 | 0.00 | 0.00 | 0.00 | 84 | 1015.0 |
| 20260506072958 | 69 | 224 | 9.0 | 13.0 | 0.00 | 0.00 | 0.00 | 84 | 1014.9 |
| 20260506072458 | 69 | 219 | 10.0 | 13.0 | 0.00 | 0.00 | 0.00 | 84 | 1014.9 |
| 20260506071959 | 69 | 223 | 9.0 | 13.0 | 0.00 | 0.00 | 0.00 | 84 | 1015.0 |
| 20260506071458 | 69 | 221 | 10.0 | 13.0 | 0.00 | 0.00 | 0.00 | 84 | 1015.0 |
| 20260506070957 | 69 | 220 | 10.0 | 13.0 | 0.00 | 0.00 | 0.00 | 84 | 1015.0 |
| 20260506070459 | 69 | 215 | 9.0 | 13.0 | 0.00 | 0.00 | 0.00 | 84 | 1015.0 |
| 20260506062459 | 69 | 223 | 10.0 | 13.0 | 0.00 | 0.00 | 0.00 | 83 | 1015.3 |
| 20260506061957 | 69 | 196 | 10.0 | 13.0 | 0.00 | 0.00 | 0.00 | 83 | 1015.1 |
| 20260506061457 | 69 | 208 | 10.0 | 13.0 | 0.00 | 0.00 | 0.00 | 83 | 1015.3 |
| 20260506060959 | 69 | 216 | 9.0 | 12.0 | 0.00 | 0.00 | 0.00 | 83 | 1015.2 |
| 20260506060458 | 69 | 199 | 9.0 | 12.0 | 0.00 | 0.00 | 0.00 | 82 | 1015.2 |
| 20260506050957 | 69 | 211 | 9.0 | 12.0 | 0.00 | 0.00 | 0.00 | 80 | 1016.0 |
| 20260506050459 | 69 | 222 | 8.0 | 12.0 | 0.00 | 0.00 | 0.00 | 81 | 1016.1 |
| 20260506044958 | 70 | 205 | 10.0 | 12.0 | 0.00 | 0.00 | 0.00 | 78 | 1016.2 |
| 20260506044459 | 70 | 206 | 9.0 | 11.0 | 0.00 | 0.00 | 0.00 | 79 | 1016.4 |
| 20260506043958 | 70 | 210 | 9.0 | 12.0 | 0.00 | 0.00 | 0.00 | 79 | 1016.2 |
| 20260506043457 | 70 | 206 | 8.0 | 12.0 | 0.00 | 0.00 | 0.00 | 78 | 1016.3 |
| 20260506042957 | 70 | 209 | 10.0 | 13.0 | 0.00 | 0.00 | 0.00 | 77 | 1016.3 |
| 20260506042458 | 70 | 211 | 11.0 | 13.0 | 0.00 | 0.00 | 0.00 | 77 | 1016.3 |
| 20260506041957 | 70 | 211 | 10.0 | 13.0 | 0.00 | 0.00 | 0.00 | 76 | 1016.2 |
| 20260506041457 | 70 | 207 | 10.0 | 13.0 | 0.00 | 0.00 | 0.00 | 76 | 1016.1 |
| 20260506040958 | 70 | 217 | 10.0 | 12.0 | 0.00 | 0.00 | 0.00 | 76 | 1016.2 |